Location: Tierz
(42.1336°N, 0.3549°W)
Time: 22:14:37
(UTC+00:00)

Cosmos 1939 Rocket - Pass Details

Date: 29 October 2020
Orbit: 532 x 584 km, 97.4° (Epoch: 25 November)

Event Time Altitude Azimuth Distance (km) Brightness Sun altitude
Rises 18:28:49 0° 178° (S) 2,729 6.4 -17.2°
Reaches altitude 10° 18:30:59 10° 183° (S) 1,830 5.5 -17.6°
Maximum altitude 18:34:51 52° 260° (W) 687 3.6 -18.4°
Drops below altitude 10° 18:38:42 10° 338° (NNW) 1,817 5.7 -19.1°
Sets 18:40:51 0° 343° (NNW) 2,707 6.6 -19.5°
